Regional Weather Roundup
Issued by NWS Boston, MA

Current Version | Previous Version | Text Only | Print | Product List | Glossary Off
Versions: 1 2 3 4 5 6 7 8 9 10 11 12 13 14 15 16 17 18 19 20 21 22 23 24 25 26 27
000 ASUS41 KBOX 300110 RWRBOX REGIONAL WEATHER ROUNDUP NATIONAL WEATHER SERVICE TAUNTON MA 900 PM EDT WED MAR 29 2017 NOTE: "FAIR" INDICATES FEW OR NO CLOUDS BELOW 12,000 FEET WITH NO SIGNIFICANT WEATHER AND/OR OBSTRUCTIONS TO VISIBILITY. MAZALL-300200- EASTERN MASSACHUSETTS CITY SKY/WX TMP DP RH WIND PRES REMARKS BOSTON CLOUDY 41 24 51 NW14 30.15R BEVERLY PTCLDY 40 25 55 NW13 30.13R LAWRENCE CLOUDY 38 25 59 NW13G21 30.16R WCI 30 BEDFORD PTCLDY 39 20 46 NW12 30.16R WCI 32 BLUE HILL N/A 37 22 54 NW16G25 30.11R WCI 28 NORWOOD CLOUDY 41 23 48 NW7 30.15R MARSHFIELD MOCLDY 41 25 52 NW14G25 30.12R PLYMOUTH CLOUDY 40 23 50 NW9G20 30.12R TAUNTON MOCLDY 40 22 48 NW9 30.13R NEW BEDFORD PTCLDY 40 22 48 NW7 30.13R $$ MAZALL-300200- CAPE COD AND THE ISLANDS CITY SKY/WX TMP DP RH WIND PRES REMARKS FALMOUTH MOCLDY 39 23 52 MISG 30.12R HYANNIS CLOUDY 41 28 60 N13G23 30.08R CHATHAM CLOUDY 41 31 67 N8 30.09R PROVINCETOWN CLOUDY 40 31 70 NW16 30.10R WCI 31 NANTUCKET CLOUDY 42 28 57 NW16 30.09R MARTHAS VNYRD CLEAR 41 23 48 NW18G29 30.11R $$ MAZALL-300200- CENTRAL AND WESTERN MASSACHUSETTS CITY SKY/WX TMP DP RH WIND PRES REMARKS WORCESTER PTCLDY 36 18 48 NW9 30.15R WCI 29 FITCHBURG PTCLDY 39 22 50 NW12 30.18R WCI 32 ORANGE PTCLDY 36 23 59 NW15G23 30.18R WCI 27 SPRINGFIELD CLOUDY 41 23 49 N14 30.18R WESTFIELD CLOUDY 41 24 51 NW12 30.20R NORTH ADAMS CLOUDY 37 21 52 VRB6 30.21R PITTSFIELD CLOUDY 35 18 49 NW8 30.18R WCI 29 $$ RIZALL-300200- RHODE ISLAND CITY SKY/WX TMP DP RH WIND PRES REMARKS PROVIDENCE CLOUDY 42 23 46 N12 30.16R NEWPORT CLOUDY 42 26 53 N10 30.14R BLOCK ISLAND CLEAR 41 26 55 N15G23 N/A SMITHFIELD CLOUDY 39 21 48 N15G25 30.15R WCI 31 WESTERLY PTCLDY 43 23 45 N14G21 30.17R $$ CTZALL-300200- CONNECTICUT CITY SKY/WX TMP DP RH WIND PRES REMARKS BRADLEY INTL CLOUDY 42 22 44 N13G22 30.20R HARTFORD CLOUDY 43 23 45 N13G23 30.19R BRIDGEPORT CLEAR 48 25 40 N12 30.17R DANBURY CLEAR 42 23 46 N17 30.20R GROTON CLOUDY 43 24 47 N9G20 30.16R NEW HAVEN PTCLDY 46 24 42 N13G20 30.18R CHESTER NOT AVBL MERIDEN CLOUDY 46 25 43 N12G20 30.19R WILLIMANTIC CLOUDY 43 25 49 N10G22 30.19R OXFORD CLOUDY 43 21 42 N18G26 30.19R $$ MEZ002-015-021-024-NHZ003-005-008-011-012-014-VTZ005-008-300200- NORTHERN NEW ENGLAND CITY SKY/WX TMP DP RH WIND PRES REMARKS PORTLAND ME CLOUDY 38 25 59 NW13G20 30.11R WCI 30 BANGOR ME CLOUDY 36 29 75 NW7 30.06R WCI 30 CONCORD NH PTCLDY 36 25 64 NW12 30.16R WCI 28 MANCHESTER NH PTCLDY 39 21 48 NW17G25 30.15R WCI 30 NASHUA NH PTCLDY 38 24 57 NW15 30.17R WCI 29 PORTSMOUTH NH PTCLDY 37 25 60 NW13 30.11R WCI 29 JAFFREY NH PTCLDY 35 21 56 VRB5 30.16R WCI 31 KEENE NH MOCLDY 37 23 56 NW3 30.20R BURLINGTON VT CLOUDY 39 23 52 N12 30.24R WCI 32 MT. WASHINGTON SNOWSHWR 10 10 100 NW66G79 N/A VSB 1/16WCI -19 $$ NYZ052-076-300200- EASTERN NEW YORK CITY SKY/WX TMP DP RH WIND PRES REMARKS ALBANY PTCLDY 37 21 52 NW9 30.25R WCI 30 NEW YORK CITY CLEAR 52 24 33 N17G23 30.17R $$ ANZALL-300200- MARINE OBSERVATIONS STATION/POSITION TIME TEMP WIND PRES VSBY WAVE AIR SEA DIR/SP/G HT/PER (UTC) (F) (DEG/KT/KT) (MB) (MI) (FT/S) BOSTON BUOY 2350 42 40 320/ 19/ 23 1018.6 4/ 8 BUZZARDS BAY 0000 42 350/ 17/ 21 1019.8R NANTUCKET SOUND 0050 40 1018.8R 3/ 4 MASS BAY-STELLWA 0004 41 39 310/ 16/ 17 1018.1R 4/ 8 ISLE OF SHOALS 0000 41 310/ 18/ 19 1018.7R S OF BLOCK IS 0055 40 N/A 4/10 $$ ......................KEY......................... SKY/WX - SKY CONDITION/PRESENT WEATHER TMP - TEMPERATURE IN FAHRENHEIT DWPT - DEWPOINT IN FAHRENHEIT RH - RELATIVE HUMIDITY IN PERCENT WIND - DIRECTION AND SPEED IN MPH PRES - MEAN SEA LEVEL PRESSURE IN INCHES OF HG WCI - WIND CHILL INDEX VSB - VISIBILITY IN MILES HX - HEAT INDEX TC - TEMPERATURE IN CELSIUS VRB - VARIABLE WIND DIRECTION N/A - NOT AVAILABLE

USA.gov is the U.S. government's official web portal to all federal, state and local government web resources and services.